Date String (YYYY-MM-DD hh:mm:ss) UTC,Instrument flags,Ambient pressure (hPa),Sample flow (lpm),Bypass flow (lpm),Sample temperature (°C),Ambient temperature (°C),ASC tube jacket temperature (°C),LED temperature (°C),Box temperature (°C),Sample RH (%),Span deviation,Mass concentration (μg/m³),Mass concentration (μg/m³),Mass concentration (μg/m³)
DateTimeUTC,F1_M11,P_M11,Q1_M11,Q2_M11,T1_M11,T2_M11,T3_M11,T4_M11,T5_M11,U1_M11,ZSPAN_M11,X0_M11,X2_M11,X1_M11
2023-04-05 12:00:00,,0825.8,5.01,0.00,22.4,20.7,00.0,30.9,23.7,09.4,0001.5,0011.58,0007.71,0007.20
2023-04-05 12:01:00,,0825.8,5.01,0.00,22.4,20.4,00.0,30.9,23.5,09.4,0001.9,0011.84,0007.74,0007.21
2023-04-05 12:02:00,,0825.8,5.00,0.00,22.4,20.9,00.0,30.8,23.9,09.4,0002.0,0011.70,0007.74,0007.21
2023-04-05 12:03:00,,0825.8,5.01,0.00,22.5,21.9,00.0,30.8,24.3,09.4,0001.7,0011.48,0007.73,0007.21
2023-04-05 12:04:00,,0825.9,5.00,0.00,22.7,22.9,00.0,30.8,24.6,09.3,0001.5,0011.50,0007.76,0007.22
2023-04-05 12:05:00,,0825.9,5.01,0.00,22.7,23.1,00.0,30.8,24.5,09.3,0001.3,0011.51,0007.77,0007.24
2023-04-05 12:06:00,,0825.8,4.99,0.00,22.7,22.6,00.0,30.9,24.3,09.3,0001.4,0011.71,0007.81,0007.26
2023-04-05 12:07:00,,0825.8,5.00,0.00,22.6,22.1,00.0,30.9,24.1,09.3,0001.6,0011.83,0007.84,0007.28
2023-04-05 12:08:00,,0825.8,5.00,0.00,22.6,21.6,00.0,30.9,23.9,09.4,0001.4,0011.93,0007.90,0007.32
2023-04-05 12:09:00,,0825.8,5.00,0.00,22.5,21.1,00.0,30.9,23.7,09.4,0001.2,0011.88,0007.92,0007.35
2023-04-05 12:10:00,,0825.8,4.99,0.00,22.4,20.8,00.0,30.9,23.7,09.4,0001.3,0012.09,0007.94,0007.37
2023-04-05 12:11:00,,0825.8,4.99,0.00,22.4,20.5,00.0,30.9,23.5,09.5,0001.2,0012.36,0007.95,0007.39
2023-04-05 12:12:00,,0825.8,5.00,0.00,22.3,20.4,00.0,30.8,23.6,09.5,0000.8,0012.24,0007.97,0007.42
2023-04-05 12:13:00,,0825.8,5.01,0.00,22.4,21.2,00.0,30.7,24.0,09.5,0000.6,0012.73,0007.99,0007.45
2023-04-05 12:14:00,,0825.9,5.00,0.00,22.5,22.2,00.0,30.7,24.3,09.4,0001.0,0012.74,0008.05,0007.48
2023-04-05 12:15:00,,0825.9,4.99,0.00,22.6,22.9,00.0,30.7,24.6,09.4,0001.5,0013.44,0008.11,0007.51
2023-04-05 12:16:00,,0825.9,4.99,0.00,22.7,22.8,00.0,30.8,24.4,09.4,0001.9,0013.51,0008.15,0007.55
2023-04-05 12:17:00,,0825.9,5.00,0.00,22.6,22.3,00.0,30.9,24.1,09.4,0002.1,0013.33,0008.16,0007.57
2023-04-05 12:18:00,,0825.8,5.00,0.00,22.5,21.7,00.0,30.9,23.8,09.4,0002.2,0013.54,0008.19,0007.60
2023-04-05 12:19:00,,0825.8,4.99,0.00,22.5,21.2,00.0,30.9,23.6,09.4,0002.6,0013.61,0008.21,0007.62
2023-04-05 12:20:00,,0825.8,5.00,0.00,22.4,20.7,00.0,30.8,23.5,09.4,0003.0,0013.79,0008.23,0007.64
2023-04-05 12:21:00,,0825.8,5.00,0.00,22.3,20.3,00.0,30.8,23.3,09.5,0002.9,0013.77,0008.29,0007.68
2023-04-05 12:22:00,,0825.8,5.01,0.00,22.3,20.4,00.0,30.7,23.5,09.5,0002.9,0013.60,0008.32,0007.70
2023-04-05 12:23:00,,0825.9,5.00,0.00,22.4,21.4,00.0,30.7,24.0,09.4,0003.1,0013.82,0008.33,0007.71
2023-04-05 12:24:00,,0825.9,5.00,0.00,22.5,22.3,00.0,30.6,24.3,09.4,0003.0,0013.87,0008.36,0007.72
2023-04-05 12:25:00,,0825.9,4.99,0.00,22.6,22.9,00.0,30.7,24.6,09.3,0002.8,0013.72,0008.34,0007.74
2023-04-05 12:26:00,,0825.9,4.99,0.00,22.6,22.7,00.0,30.7,24.3,09.3,0002.6,0013.18,0008.33,0007.74
2023-04-05 12:27:00,,0825.9,5.00,0.00,22.6,22.2,00.0,30.8,23.9,09.4,0002.3,0013.12,0008.35,0007.75
2023-04-05 12:28:00,,0825.9,5.00,0.00,22.5,21.6,00.0,30.8,23.7,09.4,0002.1,0013.21,0008.39,0007.78
2023-04-05 12:29:00,,0825.9,5.00,0.00,22.4,21.1,00.0,30.8,23.5,09.4,0001.8,0013.20,0008.41,0007.80
2023-04-05 12:30:00,,0825.9,5.00,0.00,22.3,20.5,00.0,30.8,23.3,09.5,0001.3,0013.36,0008.39,0007.83
2023-04-05 12:31:00,,0825.9,5.00,0.00,22.2,20.2,00.0,30.7,23.2,09.5,0001.1,0013.33,0008.41,0007.86
2023-04-05 12:32:00,,0825.9,5.01,0.00,22.2,20.7,00.0,30.7,23.7,09.5,0001.3,0013.26,0008.44,0007.87
2023-04-05 12:33:00,,0826.0,5.00,0.00,22.4,21.8,00.0,30.6,24.1,09.5,0001.0,0013.24,0008.48,0007.89
2023-04-05 12:34:00,,0826.0,5.00,0.00,22.5,22.7,00.0,30.6,24.4,09.5,0000.8,0013.09,0008.52,0007.92
2023-04-05 12:35:00,,0826.0,5.00,0.00,22.6,23.2,00.0,30.7,24.6,09.4,0000.9,0012.87,0008.57,0007.94
2023-04-05 12:36:00,,0826.0,4.99,0.00,22.6,22.9,00.0,30.8,24.3,09.4,0000.8,0012.79,0008.59,0007.97
2023-04-05 12:37:00,,0826.0,5.01,0.00,22.5,22.4,00.0,30.8,24.0,09.4,0000.7,0012.79,0008.61,0008.01
2023-04-05 12:38:00,,0826.1,5.00,0.00,22.5,21.8,00.0,30.8,23.8,09.4,0000.5,0012.81,0008.64,0008.05
2023-04-05 12:39:00,,0826.0,5.00,0.00,22.4,21.2,00.0,30.8,23.6,09.4,0000.7,0012.87,0008.70,0008.08
2023-04-05 12:40:00,,0826.0,5.01,0.00,22.3,20.6,00.0,30.8,23.4,09.5,0000.9,0012.83,0008.74,0008.13
2023-04-05 12:41:00,,0826.0,5.00,0.00,22.2,20.2,00.0,30.7,23.3,09.6,0001.1,0012.55,0008.81,0008.20
2023-04-05 12:42:00,,0826.1,5.01,0.00,22.2,20.7,00.0,30.7,23.7,09.6,0001.1,0012.69,0008.91,0008.28
2023-04-05 12:43:00,,0826.2,5.00,0.00,22.4,21.8,00.0,30.6,24.1,09.5,0000.8,0012.82,0009.00,0008.37
2023-04-05 12:44:00,,0826.1,4.99,0.00,22.5,22.8,00.0,30.6,24.4,09.5,0000.8,0012.89,0009.06,0008.43
2023-04-05 12:45:00,,0826.2,4.99,0.00,22.6,23.0,00.0,30.7,24.4,09.5,0001.2,0012.86,0009.10,0008.50
2023-04-05 12:46:00,,0826.2,4.99,0.00,22.5,22.5,00.0,30.8,24.1,09.5,0001.1,0012.77,0009.15,0008.59
2023-04-05 12:47:00,,0826.2,5.01,0.00,22.5,22.0,00.0,30.8,23.8,09.6,0001.2,0012.83,0009.28,0008.69
2023-04-05 12:48:00,,0826.2,4.99,0.00,22.4,21.4,00.0,30.8,23.7,09.6,0001.4,0012.95,0009.37,0008.78
2023-04-05 12:49:00,,0826.2,5.00,0.00,22.3,20.9,00.0,30.8,23.6,09.7,0001.8,0013.37,0009.51,0008.88
2023-04-05 12:50:00,,0826.2,5.01,0.00,22.3,20.6,00.0,30.7,23.4,09.7,0001.7,0013.33,0009.55,0008.95
2023-04-05 12:51:00,,0826.2,5.00,0.00,22.2,20.3,00.0,30.7,23.3,09.8,0001.5,0013.56,0009.61,0009.01
2023-04-05 12:52:00,,0826.2,5.00,0.00,22.2,20.8,00.0,30.6,23.6,09.8,0001.6,0013.68,0009.68,0009.06
2023-04-05 12:53:00,,0826.3,5.00,0.00,22.3,22.0,00.0,30.6,24.1,09.8,0001.4,0013.58,0009.69,0009.08
2023-04-05 12:54:00,,0826.4,4.99,0.00,22.5,23.0,00.0,30.6,24.4,09.7,0001.4,0013.51,0009.67,0009.10
2023-04-05 12:55:00,,0826.3,4.99,0.00,22.5,22.9,00.0,30.7,24.3,09.7,0001.3,0013.35,0009.64,0009.11
2023-04-05 12:56:00,,0826.3,4.99,0.00,22.5,22.6,00.0,30.7,24.1,09.7,0001.1,0013.39,0009.67,0009.14
2023-04-05 12:57:00,,0826.4,4.99,0.00,22.4,22.1,00.0,30.8,23.9,09.7,0001.2,0013.71,0009.70,0009.16
2023-04-05 12:58:00,,0826.4,5.00,0.00,22.4,21.7,00.0,30.8,23.8,09.8,0001.1,0014.26,0009.72,0009.18
2023-04-05 12:59:00,,0826.3,5.00,0.00,22.3,21.3,00.0,30.8,23.7,09.9,0001.1,0014.36,0009.75,0009.20
